KO6TH-15 Weather Reports


time (UTC)temp
F
wind
direction
speed
knots
gust
knots
rain 1hr
in
rain 24hr
in
rain mn
in
humidity
%
barometer
mb
20260906153946 62 0 1.7 0.0 0.00 0.00 0.00 71
20260906152915 61 0 2.6 0.0 0.00 0.00 0.00 75
20260906151846 61 0 1.7 0.0 0.00 0.00 0.00 77
20260906150846 59 0 0.9 0.0 0.00 0.00 0.00 80
20260906145846 57 0 0.0 0.0 0.00 0.00 0.00 95
20260906144816 54 0 0.0 0.0 0.00 0.00 0.00 99
20260906143745 51 0 0.0 0.0 0.00 0.00 0.00 99
20260906142746 49 0 0.0 0.0 0.00 0.00 0.00 99
20260906141716 49 0 0.0 0.0 0.00 0.00 0.00 99
20260906140716 49 0 0.0 0.0 0.00 0.00 0.00 99
20260906135716 49 0 0.0 0.0 0.00 0.00 0.00 99
20260906134716 49 0 0.0 0.0 0.00 0.00 0.00 99
20260906133715 49 0 0.0 0.0 0.00 0.00 0.00 99
20260906132646 49 0 0.0 0.0 0.00 0.00 0.00 99
20260906131616 49 0 0.0 0.0 0.00 0.00 0.00 99
20260906130616 49 0 0.0 0.0 0.00 0.00 0.00 98
20260906125615 49 0 0.0 0.0 0.00 0.00 0.00 98
20260906124546 50 0 0.0 0.0 0.00 0.00 0.00 98
20260906123515 50 0 0.0 0.0 0.00 0.00 0.00 97
20260906122446 50 0 0.0 0.0 0.00 0.00 0.00 98
20260906121416 50 0 0.0 0.0 0.00 0.00 0.00 98
20260906120416 50 0 0.0 0.0 0.00 0.00 0.00 97
20260906115345 51 0 0.0 0.0 0.00 0.00 0.00 97
20260906114346 51 0 0.0 0.0 0.00 0.00 0.00 96
20260906113316 51 0 0.0 0.0 0.00 0.00 0.00 95
20260906112316 52 0 0.0 0.0 0.00 0.00 0.00 95
20260906111316 52 0 0.0 0.0 0.00 0.00 0.00 95
20260906110316 52 0 0.0 0.0 0.00 0.00 0.00 96
20260906105315 52 0 0.0 0.0 0.00 0.00 0.00 95
20260906104316 52 0 0.0 0.0 0.00 0.00 0.00 94
20260906103246 52 0 0.0 0.0 0.00 0.00 0.00 95
20260906102216 52 0 0.0 0.0 0.00 0.00 0.00 95
20260906101216 52 0 0.0 0.0 0.00 0.00 0.00 94
20260906100145 53 0 0.0 0.0 0.00 0.00 0.00 94
20260906095116 53 0 0.0 0.0 0.00 0.00 0.00 95
20260906094046 53 0 0.0 0.0 0.00 0.00 0.00 95
20260906093046 52 0 0.0 0.0 0.00 0.00 0.00 95
20260906092015 52 0 0.0 0.0 0.00 0.00 0.00 96
20260906090946 52 0 0.0 0.0 0.00 0.00 0.00 96
20260906085916 52 0 0.0 0.0 0.00 0.00 0.00 96
20260906084916 52 0 0.0 0.0 0.00 0.00 0.00 96
20260906083846 52 0 0.0 0.0 0.00 0.00 0.00 95
20260906082816 52 0 0.0 0.0 0.00 0.00 0.00 95
20260906081816 52 0 0.0 0.0 0.00 0.00 0.00 94
20260906080746 52 0 0.0 0.0 0.00 0.00 0.00 95
20260906075716 52 0 0.0 0.0 0.00 0.00 0.00 93
20260906074645 53 0 0.0 0.0 0.00 0.00 0.00 93
20260906073646 53 0 0.0 0.0 0.00 0.00 0.00 92
20260906072616 53 0 0.0 0.0 0.00 0.00 0.00 92
20260906071616 53 0 0.0 0.0 0.00 0.00 0.00 92
20260906070545 54 0 0.0 0.0 0.00 0.00 0.00 91
20260906065545 54 0 0.0 0.0 0.00 0.00 0.00 89
20260906064546 54 0 0.0 0.0 0.00 0.00 0.00 89
20260906063546 55 0 0.0 0.0 0.00 0.00 0.00 88
20260906062516 55 0 0.0 0.0 0.00 0.00 0.00 86
20260906061445 55 0 0.0 0.0 0.00 0.00 0.00 86
20260906060416 56 0 0.0 0.0 0.00 0.00 0.00 86
20260906055416 56 0 0.0 0.0 0.00 0.00 0.00 85
20260906054416 56 0 0.0 0.0 0.00 0.00 0.00 85
20260906053416 57 0 0.0 0.0 0.00 0.00 0.00 84
20260906052346 57 0 0.0 0.0 0.00 0.00 0.00 83
20260906051316 57 0 0.9 0.0 0.00 0.00 0.00 83
20260906050246 58 0 0.0 0.0 0.00 0.00 0.00 80
20260906045216 59 0 0.0 0.0 0.00 0.00 0.00 78
20260906044216 59 0 0.0 0.0 0.00 0.00 0.00 75
20260906043146 60 0 0.0 0.0 0.00 0.00 0.00 74
20260906042146 61 0 0.0 0.0 0.00 0.00 0.00 73
20260906041116 61 0 0.0 0.0 0.00 0.00 0.00 71
20260906040116 62 0 0.0 0.0 0.00 0.00 0.00 70
20260906035046 63 0 0.0 0.0 0.00 0.00 0.00 69
20260906034045 64 0 0.0 0.0 0.00 0.00 0.00 66
20260906033016 65 0 0.0 0.0 0.00 0.00 0.00 65
20260906031946 66 0 0.0 0.0 0.00 0.00 0.00 63
20260906030916 67 0 0.0 0.0 0.00 0.00 0.00 61
20260906025916 68 0 0.0 0.0 0.00 0.00 0.00 59
20260906024845 69 0 0.0 0.0 0.00 0.00 0.00 57
20260906023846 71 0 0.0 0.0 0.00 0.00 0.00 55
20260906022845 72 0 0.0 0.0 0.00 0.00 0.00 53
20260906021816 74 0 0.0 0.0 0.00 0.00 0.00 50
20260906020746 75 0 0.9 0.0 0.00 0.00 0.00 46
20260906015745 75 0 1.7 0.0 0.00 0.00 0.00 44
20260906014746 76 0 0.0 0.0 0.00 0.00 0.00 44
20260906013715 77 0 0.9 0.0 0.00 0.00 0.00 43
20260906012715 77 0 1.7 0.0 0.00 0.00 0.00 43
20260906011646 78 0 0.9 0.0 0.00 0.00 0.00 43
20260906010616 78 0 0.9 0.0 0.00 0.00 0.00 41
20260906005616 78 0 1.7 0.0 0.00 0.00 0.00 41
20260906004615 79 0 3.5 0.0 0.00 0.00 0.00 40
20260906003546 81 0 0.9 0.0 0.00 0.00 0.00 38
20260906002545 82 0 0.9 0.0 0.00 0.00 0.00 39
20260906001546 81 0 1.7 0.0 0.00 0.00 0.00 39
20260906000516 81 0 1.7 0.0 0.00 0.00 0.00 39
20260905235516 80 0 2.6 0.0 0.00 0.00 0.00 39
20260905234515 82 0 1.7 0.0 0.00 0.00 0.00 38
20260905233515 83 0 4.3 0.0 0.00 0.00 0.00 37
20260905232515 85 0 3.5 0.0 0.00 0.00 0.00 35
20260905231516 87 0 4.3 0.0 0.00 0.00 0.00 34
20260905230446 85 0 2.6 0.0 0.00 0.00 0.00 35
20260905225446 84 0 1.7 0.0 0.00 0.00 0.00 36
20260905224445 84 0 3.5 0.0 0.00 0.00 0.00 35
20260905223415 86 0 3.5 0.0 0.00 0.00 0.00 33
20260905222346 87 0 2.6 0.0 0.00 0.00 0.00 33
20260905221316 88 0 3.5 0.0 0.00 0.00 0.00 33
20260905220316 85 0 0.9 0.0 0.00 0.24 0.00 35
20260905215246 85 0 1.7 0.0 0.00 0.24 0.00 35
20260905214216 85 0 2.6 0.0 0.00 0.24 0.00 34
20260905213146 83 0 3.5 0.0 0.00 0.24 0.00 34
20260905212116 85 0 1.7 0.0 0.00 0.24 0.00 33
20260905211115 82 0 1.7 0.0 0.00 0.24 0.00 34
20260905210046 80 0 2.6 0.0 0.00 0.24 0.00 37
20260905205046 78 0 2.6 0.0 0.00 0.24 0.00 36
20260905204046 77 0 4.3 0.0 0.00 0.24 0.00 39
20260905203016 75 0 3.5 0.0 0.00 0.24 0.00 41
20260905202016 76 0 5.2 0.0 0.00 0.24 0.00 42
20260905201016 77 0 2.6 0.0 0.00 0.24 0.00 42
20260905200016 79 0 0.9 0.0 0.00 0.24 0.00 42
20260905194946 77 0 4.3 0.0 0.00 0.24 0.00 45
20260905193946 77 0 1.7 0.0 0.00 0.24 0.00 46
20260905192916 76 0 3.5 0.0 0.00 0.24 0.00 48
20260905191846 76 0 4.3 0.0 0.00 0.24 0.00 48
20260905190846 76 0 1.7 0.0 0.00 0.24 0.00 49
20260905185816 76 0 0.9 0.0 0.00 0.24 0.00 49
20260905184816 75 0 0.9 0.0 0.00 0.24 0.00 51
20260905183746 75 0 2.6 0.0 0.00 0.24 0.00 52
20260905182746 74 0 7.0 0.0 0.00 0.24 0.00 53
20260905181716 74 0 6.1 0.0 0.00 0.24 0.00 52
20260905180716 74 0 5.2 0.0 0.00 0.24 0.00 52
20260905175716 74 0 3.5 0.0 0.00 0.24 0.00 53
20260905174716 73 0 1.7 0.0 0.00 0.24 0.00 55
20260905173646 72 0 1.7 0.0 0.00 0.24 0.00 57
20260905172616 71 0 1.7 0.0 0.00 0.24 0.00 58
20260905171616 70 0 1.7 0.0 0.00 0.24 0.00 61
20260905170616 69 0 0.9 0.0 0.00 0.24 0.00 58
20260905165616 67 0 0.0 0.0 0.00 0.24 0.00 61
20260905164616 65 0 0.0 0.0 0.00 0.24 0.00 67
20260905163615 65 0 0.0 0.0 0.00 0.24 0.00 70
20260905162615 64 0 0.0 0.0 0.00 0.24 0.00 74
20260905161546 62 0 0.0 0.0 0.00 0.24 0.00 77
20260905160546 61 0 0.0 0.0 0.00 0.24 0.00 81
20260905155516 60 0 0.0 0.0 0.00 0.24 0.00 87